map of TIF home
TIF - Airport
Location
City:  Ta'if, Saudi Arabia
Near (Alt.):Taif
Name:Taif Airport
ICAO:OETF
IATA:TIF

Details
Type:Airport (Aerodrome, Airfield)
Use:Public/Civil
Latitude:2129'00"N (21.483333)
Longitude:4032'40"E (40.544444)
Elevation:4848 ft (1478 m)
Variation:3.41E (WMM2015 magnetic declination)
0.06 annual change
Runways:2
Longest:12254 × 148 ft (3735 × 45 m), paved

Time
Time Zone:UTC+3
Local Time:

Weather
METAR:OETF 120400Z 17004KT CAVOK 13/11 Q1024 NOSIG
TAF:OETF 120500Z 1206/1224 18013KT 9999 SCT030
BECMG 1210/1213 24014KT

Related Locations
Nearby:
Farthest:UOA: 12394 mi / 19946 km
Mururoa Atoll [Mururoa Airstrip], PF

Find:

   beyond  
but within

Other Information
Maps:
NOTAMs:
Links:
Sources:

  
  • flag of Saudi Arabia
  

Sectional Chart

Flight Planning
at skyvector.com

Satellite Image

Google Maps Satellite view

 

Copyright © 2004-2018 Karl L. Swartz. All rights reserved.
The Great Circle Mapper name and logo are trademarks of the Great Circle Mapper.
All other trademarks mentioned herein belong to their respective owners.
Please see credits for attibutions and further copyright information.

  Follow gcmap on Facebook Follow gcmap on Twitter Follow gcmap on Google+ GCmap on LinkedIn

hCard Microformat

Geo Microformat